Lapse_Rate
7.3 7.5 7.8 7.6 7.5 7.3 7.2 7.2 7.1 6.9 6.8 6.5 6.2 5.9 5.7 5.7 5.6 5.5 5.5 5.5 5.6 5.7 5.9 6.1 6.3 6.4 6.6 6.7 6.8 6.7 6.5 6.3 6.2 6.2 6.5 6.7 6.9 6.8 6.8 6.3 5.7 6.3 6.4
7.4 7.4 7.6 7.6 7.4 7.3 6.9 6.8 6.8 6.6 6.5 6.4 6.3 6.0 5.8 5.7 5.6 5.6 5.7 5.8 5.8 5.9 6.0 6.1 6.2 6.3 6.3 6.2 6.1 6.0 6.0 6.2 6.4 6.3 6.4 6.4 6.7 6.4 6.1 6.0 6.0 5.9 6.1
7.3 7.4 7.6 7.8 7.6 7.1 6.8 6.7 6.4 6.2 6.1 5.9 5.7 5.6 5.6 5.7 5.8 5.9 5.9 6.0 6.3 6.3 6.2 6.3 6.2 6.1 5.8 5.8 5.9 5.9 5.9 5.9 6.2 6.1 5.6 5.3 5.2 5.4 5.4 5.7 5.5 5.6 5.6
7.1 7.3 7.4 7.4 7.3 7.0 6.7 6.6 6.5 6.2 5.9 5.6 5.6 5.6 5.7 5.7 5.9 6.1 6.3 6.4 6.1 6.2 6.2 6.0 5.9 5.9 5.9 5.9 5.8 5.7 5.6 5.6 5.6 5.4 5.4 5.4 5.1 4.8 4.8 4.7 5.1 5.5 5.7
7.2 7.4 7.3 7.2 6.7 6.5 6.5 6.5 6.3 6.1 5.9 5.7 5.5 5.7 5.9 6.0 6.0 6.0 6.3 6.1 6.1 5.9 5.8 5.8 5.8 5.5 5.2 5.0 5.3 5.5 5.3 5.3 5.6 6.1 6.3 6.0 5.8 5.6 5.3 5.4 5.2 5.6 6.2
7.2 7.0 6.7 6.6 6.8 6.7 6.4 6.4 6.3 6.2 5.9 5.8 5.8 5.9 6.1 6.2 6.3 6.1 5.8 5.7 5.9 6.0 6.0 5.8 5.4 5.3 4.9 4.6 4.6 4.7 5.0 5.7 6.0 5.9 5.7 5.6 5.6 5.7 5.7 5.6 5.9 5.1 6.0
7.1 7.0 6.7 6.7 6.8 6.8 6.6 6.5 6.4 6.3 5.9 5.8 5.9 6.1 6.1 6.0 5.8 5.6 5.7 5.7 5.5 5.3 5.0 4.9 5.0 4.8 4.9 4.3 3.7 3.7 4.3 5.1 5.5 5.5 5.3 5.2 5.1 5.0 5.1 4.5 4.8 5.3 5.5
6.7 6.6 6.6 6.7 6.9 6.7 6.6 6.3 6.0 5.7 5.6 5.7 5.7 5.7 5.8 5.7 5.7 5.7 5.5 5.3 5.0 4.8 4.6 4.4 4.3 4.0 3.9 4.0 4.1 4.2 4.1 4.3 4.5 4.8 5.0 4.9 4.9 4.4 4.3 4.7 5.1 4.8 4.9
6.7 6.6 6.7 6.8 6.5 6.2 6.1 6.0 5.8 5.7 5.9 6.1 6.4 6.2 6.3 5.7 5.7 5.4 5.2 4.8 4.5 4.2 4.0 3.7 3.5 3.4 3.5 3.8 3.9 4.3 4.5 4.8 5.1 5.4 5.8 5.8 5.8 6.0 6.0 6.1 5.8 5.7 4.8
6.5 6.1 6.2 6.3 6.2 6.1 6.1 6.2 6.1 6.2 6.2 6.3 6.1 6.1 5.6 5.3 5.3 5.2 5.0 4.7 4.3 3.8 3.3 3.2 3.2 3.5 3.9 4.1 4.4 4.7 5.4 5.7 6.5 6.7 6.9 6.8 6.9 7.1 6.5 5.9 6.3 6.2 6.0
6.6 6.3 6.1 6.0 5.9 6.1 6.2 6.0 6.1 6.3 6.1 5.8 6.0 5.8 5.4 5.3 5.0 4.6 4.2 3.9 3.6 3.3 3.3 3.3 3.5 3.8 4.3 4.7 5.2 6.1 6.5 6.4 6.7 6.6 6.7 7.0 7.0 7.1 6.7 6.6 6.3 6.5 6.0
6.4 6.0 5.6 5.5 5.6 5.5 5.5 5.8 5.7 5.6 5.7 5.9 5.7 5.0 4.6 4.7 4.7 4.7 4.3 4.0 3.8 3.6 3.6 3.7 4.0 4.2 4.4 5.2 6.0 6.2 6.2 6.2 6.7 6.7 7.0 7.0 6.9 7.0 7.0 6.6 6.8 6.2 6.4
6.0 5.6 5.3 5.2 5.2 5.4 5.5 5.4 5.1 5.3 5.4 5.3 4.9 4.6 4.7 5.0 4.9 4.7 4.4 4.0 3.7 3.6 3.9 4.4 4.8 5.2 5.9 6.6 6.5 6.3 6.4 6.7 6.9 7.1 7.3 7.5 7.1 7.1 7.0 6.9 6.9 6.7 6.6
6.2 5.8 5.4 5.3 5.3 5.5 5.5 5.5 5.5 5.4 5.3 5.1 5.1 5.0 5.2 5.0 4.6 4.2 4.0 3.7 3.6 4.0 4.7 4.7 5.2 6.3 6.7 6.6 6.5 6.5 6.7 6.9 7.2 7.4 7.5 7.4 7.4 7.6 7.4 7.1 7.1 6.9 6.5
5.8 5.5 5.4 5.5 5.6 5.6 5.5 5.5 5.4 5.2 5.2 5.4 5.2 5.1 4.7 4.3 4.1 3.9 3.8 3.7 4.2 4.6 4.9 5.8 7.0 7.0 6.8 6.6 6.5 7.3 7.2 7.1 7.3 7.7 7.7 7.8 7.8 7.7 7.6 7.4 7.4 7.3 6.9
5.8 5.4 5.2 5.3 5.5 5.5 5.6 5.4 5.2 5.0 5.1 4.8 4.6 4.3 4.4 4.2 3.9 3.9 3.9 4.5 4.8 5.2 6.4 7.2 7.1 7.0 6.7 7.1 7.6 7.5 7.4 7.1 7.6 7.4 7.6 7.7 7.6 7.8 7.5 7.1 7.1 7.3 7.5
5.6 5.3 5.3 5.5 5.6 5.5 5.1 4.8 4.8 5.1 4.6 4.4 4.5 4.6 4.4 4.1 4.2 4.3 4.6 4.8 5.3 6.5 7.3 7.2 7.1 6.9 7.2 7.6 7.8 7.7 7.6 7.5 7.7 7.8 7.6 7.7 7.7 7.6 7.8 7.7 7.3 7.5 7.5
5.6 5.4 5.2 5.3 5.4 5.0 4.4 4.5 4.9 4.7 4.6 4.7 4.5 4.5 4.4 4.5 4.6 4.6 4.8 5.3 6.4 7.1 7.3 7.2 7.1 7.3 7.5 7.8 8.0 8.1 8.0 8.0 7.8 7.7 7.6 7.7 7.7 7.4 7.8 7.8 7.8 7.7 7.6
4.9 4.9 5.2 5.1 4.8 4.4 4.6 4.9 4.9 4.7 4.6 4.5 4.6 4.7 4.6 4.6 4.9 5.0 5.5 6.4 7.1 7.3 7.2 7.1 7.2 7.6 7.6 7.7 7.8 7.8 7.7 7.7 7.7 7.6 7.6 7.5 7.6 7.6 7.7 7.8 7.9 7.9 7.7
5.1 4.9 4.4 4.0 4.1 4.5 4.4 4.6 4.9 4.8 4.6 4.8 4.7 4.6 4.7 5.3 5.4 5.7 6.5 7.3 7.5 7.3 7.3 7.1 7.1 7.4 7.4 7.5 7.4 7.3 7.4 7.4 7.4 7.5 7.5 7.4 7.5 7.5 7.6 7.9 8.2 8.1 7.7
5.5 4.9 4.5 4.3 4.8 4.3 4.6 4.9 4.7 4.7 4.7 4.6 4.6 4.9 5.5 5.4 5.7 6.6 7.2 7.5 7.4 7.2 7.1 7.0 7.1 7.4 7.4 7.6 7.5 7.5 7.5 7.5 7.5 7.4 7.2 7.0 7.1 7.4 7.6 7.9 8.2 8.0 7.6
5.8 5.3 5.1 4.5 4.3 4.7 4.8 4.7 4.6 4.5 4.5 4.6 5.3 5.5 5.3 5.6 6.6 7.3 7.6 7.5 7.4 7.3 7.2 7.1 7.2 7.4 7.5 7.5 7.6 7.6 7.4 7.3 7.0 6.8 6.7 6.8 6.8 7.5 8.0 8.1 7.9 7.7 7.7
5.1 4.8 4.3 4.4 4.8 4.8 4.7 4.5 4.4 4.5 5.0 5.5 5.6 5.3 5.8 6.7 7.3 7.6 7.5 7.4 7.2 7.2 7.2 7.2 7.2 7.3 7.4 7.4 7.4 7.4 7.2 7.0 6.6 6.6 6.6 6.8 7.1 7.4 7.7 7.7 7.8 7.9 7.8
4.5 4.2 4.5 4.8 4.6 4.4 4.3 4.3 4.7 5.2 5.4 5.3 5.4 6.1 6.9 7.3 7.5 7.4 7.3 7.3 7.2 7.2 7.2 7.2 7.3 7.3 7.3 7.3 7.3 7.2 7.1 6.9 6.7 6.7 6.9 7.1 7.4 7.5 7.6 7.8 7.8 7.7 7.4
4.1 4.5 4.7 4.5 4.2 4.1 4.4 4.9 5.1 5.2 5.2 5.6 6.3 6.9 7.2 7.4 7.4 7.2 7.2 7.3 7.2 7.2 7.3 7.3 7.3 7.2 7.2 7.2 7.1 7.0 7.0 6.9 6.8 6.9 7.0 7.3 7.5 7.6 7.7 7.7 7.6 7.4 7.1
4.6 4.4 4.1 4.0 4.3 4.6 4.9 5.0 5.0 5.1 5.7 6.3 6.8 7.1 7.2 7.2 7.2 7.3 7.2 7.0 7.1 7.2 7.2 7.3 7.3 7.2 7.1 7.0 7.0 6.9 6.8 6.8 6.9 7.1 7.1 7.3 7.5 7.6 7.8 7.7 7.4 6.9 6.6
Wind_Speed
6 6 6 7 9 8 9 8 9 6 5 3 4 3 3 2 3 6 9 12 13 13 10 5 5 5 3 4 4 3 5 5 3 7 6 8 9 9 8 9 10 11 18
10 8 7 6 7 8 8 9 8 7 6 4 3 3 3 2 2 5 9 15 14 11 7 5 4 3 2 3 4 4 2 2 3 4 8 6 4 3 8 9 8 12 11
16 11 10 9 8 8 8 8 7 7 6 6 4 3 3 3 3 4 3 6 11 12 12 11 5 5 3 2 4 3 4 3 2 3 3 5 4 4 2 6 7 8 7
13 12 11 7 9 7 7 8 8 8 7 8 6 6 3 2 1 2 3 5 11 11 11 10 8 5 4 5 4 4 3 3 5 3 2 5 9 8 11 4 4 8 11
15 14 12 11 8 7 7 8 8 8 7 8 8 5 4 1 1 2 5 5 5 8 10 8 7 5 4 4 5 5 4 2 2 3 5 4 4 7 7 13 10 3 4
11 10 7 8 7 7 7 7 8 6 7 8 7 7 5 2 3 3 4 4 3 3 4 5 5 4 3 3 3 4 4 4 3 2 3 1 3 5 7 9 11 11 7
14 12 12 10 8 8 8 7 8 6 6 7 6 6 4 4 2 2 2 4 3 2 3 3 3 1 2 3 3 3 4 3 3 4 4 3 4 2 6 7 7 5 3
12 14 12 10 10 8 8 8 7 6 5 6 6 5 5 3 1 1 2 3 2 3 3 4 5 5 5 4 3 2 3 4 4 6 5 3 2 2 2 5 8 6 3
15 15 11 10 8 8 8 8 8 6 6 5 4 4 3 2 2 4 3 3 4 3 6 6 7 7 5 6 5 4 5 4 4 5 5 4 4 3 3 6 5 6 5
15 12 11 9 7 7 7 7 7 7 5 5 4 3 4 4 3 4 6 6 6 5 7 7 7 7 7 7 6 5 6 6 5 4 6 5 5 5 4 5 5 4 7
16 14 10 7 8 7 7 7 6 6 5 5 4 6 6 7 6 5 6 6 6 7 7 7 7 8 9 8 6 8 8 7 7 6 7 8 6 5 4 4 4 5 4
13 10 8 8 8 7 6 6 5 7 6 6 5 5 5 5 5 6 6 6 6 6 7 7 7 8 9 9 8 11 10 7 7 8 6 9 5 7 6 5 6 6 6
12 8 8 9 8 7 7 7 6 6 6 5 6 6 5 6 6 5 5 5 6 6 6 5 6 7 7 8 7 7 9 8 7 7 7 10 7 7 4 4 5 5 6
14 11 9 7 8 7 7 7 6 6 5 6 6 4 5 4 4 5 6 6 6 6 6 6 6 6 7 6 6 6 6 6 6 8 8 9 7 7 6 7 8 6 6
14 12 12 10 8 7 7 7 7 6 5 5 5 6 6 6 6 6 6 6 6 5 5 8 6 6 6 5 6 5 4 4 7 12 9 7 7 9 9 7 8 6 6
12 12 12 11 8 8 8 7 6 5 5 6 6 5 5 5 5 6 6 6 7 7 8 8 7 8 6 10 11 7 6 8 7 9 11 9 11 9 15 16 14 11 8
14 13 11 9 9 9 8 6 6 5 6 6 5 4 4 4 4 7 8 9 9 7 8 7 6 8 8 11 11 12 7 6 7 9 10 11 8 12 11 10 13 12 14
14 12 11 10 9 7 7 7 5 5 6 5 3 3 4 4 6 6 7 8 8 7 8 7 6 7 8 12 15 14 8 8 9 10 11 12 13 9 8 9 9 8 8
13 12 11 10 8 7 6 6 6 6 5 1 2 4 5 6 7 8 8 8 9 11 9 9 9 9 9 13 16 14 9 9 11 10 10 11 12 11 13 10 9 9 8
15 14 11 10 10 5 5 6 5 4 3 3 3 5 7 8 9 9 9 7 8 8 7 8 9 10 11 13 16 15 10 14 10 10 11 15 13 13 12 9 8 8 7
16 13 10 10 7 5 6 6 5 3 3 1 2 5 7 8 8 8 8 7 8 8 9 9 9 8 9 10 15 16 10 9 9 9 9 8 14 15 13 12 6 7 2
15 13 10 8 6 6 5 5 3 2 1 3 5 6 6 6 7 9 8 8 8 8 8 8 8 6 8 11 13 17 16 16 10 11 9 10 16 15 12 7 7 8 3
12 10 10 9 6 5 5 5 2 3 5 6 5 5 5 5 5 6 7 7 7 9 9 7 7 8 7 8 15 14 15 16 10 10 13 20 16 12 6 6 6 2 1
11 9 10 8 6 5 5 4 4 5 5 3 3 4 4 6 5 3 4 5 5 6 7 7 8 8 8 8 8 8 10 16 11 11 11 9 6 3 2 1 2 2 2
7 8 8 7 7 6 5 4 5 4 2 3 3 4 3 3 5 4 5 6 7 7 8 8 8 9 10 9 15 16 11 10 11 10 7 2 1 1 1 2 3 3 3
7 7 7 7 7 6 5 4 4 2 0 3 3 3 3 3 4 4 7 8 12 14 16 16 12 9 14 18 20 22 22 19 14 6 4 2 1 2 1 2 2 3 3
Wind_Direction
158 143 121 108 94 69 89 96 102 91 104 88 103 66 61 22 41 37 42 31 20 22 15 4 356 357 354 337 316 292 313 324 307 300 289 262 257 244 235 228 227 230 220
154 142 132 105 87 99 88 89 92 95 89 91 85 90 100 66 61 9 22 22 14 18 16 360 334 332 337 344 351 326 310 288 324 303 314 304 313 279 258 246 237 236 223
152 150 138 127 119 108 112 102 96 92 90 101 104 76 55 36 23 6 4 351 0 357 357 351 345 332 333 310 315 303 321 306 303 247 265 308 288 316 246 237 234 228 218
156 152 143 132 127 127 115 104 99 91 76 76 76 79 92 62 344 315 330 344 6 7 13 6 6 5 1 360 352 340 329 334 315 309 267 292 296 297 300 280 287 250 239
164 158 151 143 134 128 119 111 101 90 90 81 85 86 69 47 291 330 345 356 346 14 16 28 34 30 17 344 327 326 330 279 288 316 320 314 317 298 295 295 291 289 259
160 154 145 125 122 124 120 119 112 104 99 94 91 95 96 60 17 350 357 355 341 342 4 22 35 33 12 341 314 303 302 302 274 227 219 81 330 329 318 308 310 296 281
160 153 148 143 138 134 136 130 118 107 106 103 92 77 73 68 25 351 326 312 310 311 332 352 343 310 279 297 306 319 319 305 255 242 240 201 178 203 305 294 298 303 317
161 161 157 151 151 149 140 122 115 112 98 86 68 48 59 50 28 270 276 271 270 266 250 265 245 250 260 258 248 238 250 249 262 271 290 308 297 275 230 273 295 287 256
163 163 154 150 145 143 139 136 127 112 100 100 91 75 94 65 344 315 266 269 258 256 257 257 270 271 269 260 248 240 258 242 256 249 233 229 231 216 236 276 264 299 300
155 149 151 153 148 138 137 134 137 132 127 117 89 66 29 10 340 338 333 321 315 304 304 295 289 287 279 274 256 251 248 241 250 253 264 269 263 247 248 207 251 257 288
153 155 156 153 145 139 147 145 123 102 75 65 51 36 11 5 355 339 324 321 312 309 294 285 287 289 287 281 270 261 264 242 247 250 246 254 242 248 236 232 231 256 249
145 146 145 143 144 142 129 116 98 86 65 53 45 30 16 1 4 357 352 349 343 331 328 319 307 303 298 288 276 276 269 245 250 249 250 256 249 235 225 224 236 242 245
148 141 137 149 143 139 131 118 100 93 85 83 65 52 42 34 29 18 358 351 348 335 328 332 319 307 297 291 290 274 273 253 245 250 247 255 241 250 240 228 252 256 254
157 152 146 140 139 133 129 122 104 91 88 81 81 71 42 29 16 354 347 334 314 305 318 310 297 302 308 309 305 297 283 297 295 281 260 255 254 259 274 279 264 257 257
156 151 145 143 138 135 120 99 89 86 92 77 62 51 30 12 357 340 317 298 304 312 298 309 307 302 303 305 326 330 339 356 329 303 283 268 264 263 264 272 266 244 251
148 144 143 137 132 116 103 98 106 96 82 73 59 34 18 354 326 309 308 325 326 320 319 323 314 316 310 301 302 315 310 297 291 281 298 299 296 284 278 270 256 247 253
147 141 132 119 112 115 125 122 103 90 83 64 46 20 348 316 320 343 333 328 323 323 326 313 306 315 310 306 303 295 296 286 286 288 289 290 286 284 275 263 267 258 244
141 131 126 123 126 126 111 106 100 86 76 54 4 326 315 323 335 331 328 328 323 326 314 298 299 304 298 298 301 294 286 270 261 264 273 278 283 271 258 276 264 254 253
139 135 135 132 121 113 118 108 88 76 76 42 332 334 321 334 342 342 335 329 325 322 309 309 306 305 309 314 314 314 308 291 286 279 270 272 273 266 267 273 265 264 259
134 135 132 120 109 103 113 102 116 122 183 197 7 353 345 345 343 328 318 308 308 302 304 302 302 303 312 316 312 317 312 307 304 295 285 280 274 267 252 255 254 268 268
134 130 129 109 118 130 118 128 137 182 229 106 52 9 1 348 329 318 310 305 308 307 306 302 303 298 302 307 303 307 309 305 308 306 301 289 275 279 275 259 231 245 198
130 112 126 128 120 118 117 144 156 220 92 43 29 12 355 333 323 319 315 314 306 303 303 305 307 305 313 299 306 312 305 306 306 302 297 293 286 282 280 273 239 259 240
131 139 127 121 126 135 140 132 162 74 51 39 12 351 322 297 299 308 316 318 320 321 317 312 308 311 309 311 311 311 305 302 300 297 293 298 292 288 283 261 273 226 139
137 129 128 135 142 136 118 135 105 67 61 26 320 295 314 312 305 298 290 296 299 298 301 307 305 309 309 309 317 315 311 307 301 301 305 296 295 299 344 40 76 81 88
124 133 142 146 151 149 142 112 84 69 48 337 304 288 285 297 311 282 287 288 279 278 293 299 299 302 303 303 313 315 312 304 293 294 291 278 312 39 61 62 69 87 85
141 144 148 148 157 151 137 131 124 109 60 285 281 278 283 291 289 292 306 294 287 285 287 289 291 293 282 297 307 312 316 309 299 287 257 262 219 173 162 112 91 76 97